www.pogodaiklimat.ru

Погода и климат >> Архив погоды >> Франция >> Дю Талю


ПОГОДА в Дю Талю

  • Прогноз погоды в Дю Талю
  • Монитор погоды в Дю Талю

АРХИВ ПОГОДЫ в Дю Талю

Время (UTC), дата Ветер
(напр.,м/с)
 
Видим.   Явления Облачность Т
(С)
Тd
(С)
f
(%)
Тe
(С)
Тes
(С)
Комфортность P
(гПа)
Po
(гПа)
Тmin
(С)
Tmax
(С)
R
(мм)
R24
(мм)
S
(см)
04 12.06 С 3-5
{5}
н/о н/о +11.7 +10.4 92 +10 +10 1009.0 1003.8 0.2
05 12.06 С 3-4
{6}
н/о н/о +11.4 +10.1 92 +10 +10 1009.0 1003.8 1
06 12.06 С 5
{10}
12 км 9/5 600 м
[Cu hum Ci]
+11.3 +9.9 91 +9 +9 1009.1 1003.9 +9.8 +12.2 2
07 12.06 СЗ 2-2
{4}
н/о н/о +11.3 +9.7 90 +10 +10 1009.5 1004.3
08 12.06 С 3-4
{4}
н/о н/о +13.8 +10.4 80 +13 +13 1009.5 1004.4
09 12.06 СЗ 5
{8}
12 км 6/5 600 м
[Cu hum Ci]
+13.3 +10.3 82 +11 +14 1009.6 1004.5
10 12.06 З 2-4
{5}
н/о н/о +14.8 +10.8 77 +14 +14 1009.8 1004.7
11 12.06 З 2-5
{5}
н/о н/о +15.6 +11.4 76 +15 +15 1009.7 1004.6
12 12.06 З 7-5
{10}
н/о н/о +15.6 +11.6 77 +14 +14 1009.9 1004.8
13 12.06 З 4-5
{6}
н/о н/о +15.9 +11.3 74 +15 +15 1010.0 1004.9
14 12.06 З 4-6
{6}
н/о н/о +15.6 +10.8 73 +15 +15 1010.3 1005.2
15 12.06 З 7
{11}
20 км 6/4 600 м
[Cu hum Ci]
+15.9 1010.5
16 12.06 З 3-4
{5}
н/о н/о +15.1 +10.5 74 +14 +14 1010.7 1005.6
17 12.06 З 3-4
{5}
н/о н/о +15.2 +10.2 72 +15 +15 1010.6 1005.5
18 12.06 З 4
{7}
20 км 8/4 600 м
[Cu Sc Ci]
+14.5 1010.8 1005.7 +11.2 +16.2
19 12.06 З 3-3
{4}
н/о н/о +13.5 +10.5 82 +13 +13 1010.7 1005.6
20 12.06 З 2-3
{3}
н/о н/о +13.2 +9.6 79 +13 +13 1010.8 1005.7
21 12.06 ЮЗ 3-3
{6}
н/о н/о +13.0 +10.2 83 +12 +12 1011.0 1005.9
22 12.06 ЮЗ 2-3
{3}
н/о н/о +13.1 +10.1 82 +13 +13 1011.0 1005.9
23 12.06 ЮЗ 2-3
{3}
н/о н/о +13.0 +10.0 82 +13 +13 1011.0 1005.9
00 13.06 ЮЗ 4-4
{7}
н/о н/о +12.9 +10.3 84 +11 +11 1010.7 1005.6
01 13.06 ЮЗ 3-4
{5}
н/о н/о +12.5 +10.7 89 +11 +11 1010.7 1005.5 0.4
02 13.06 З 3-4
{6}
н/о н/о +12.3 +10.2 87 +11 +11 1010.3 1005.1 1
03 13.06 ЮЗ 5-5
{9}
н/о н/о +13.0 +9.4 79 +11 +11 1009.8 1004.7 1
04 13.06 ЮЗ 3-5
{5}
н/о н/о +12.9 +9.7 81 +12 +12 1009.8 1004.7
05 13.06 ЮЗ 4-6
{6}
н/о н/о +13.1 +9.3 78 +12 +12 1009.9 1004.8
06 13.06 ЮЗ 6
{12}
20 км 8/8 300 м
[Cu med, cong Ac lent]
+13.4 +9.3 76 +11 +11 1009.9 1004.8 +11.7 +14.5 0.2
07 13.06 ЮЗ 4-7
{7}
н/о н/о +12.7 +9.9 83 +11 +11 1010.6 1005.4
08 13.06 ЮЗ 4-6
{7}
н/о н/о +13.1 +10.1 82 +12 +12 1010.9 1005.8
09 13.06 ЮЗ 7
{13}
20 км {ливн. осадки} 8/8 300 м
[Cu med, cong Ac lent]
+14.2 +10.2 77 +12 +13 1011.0 1005.9
10 13.06 З 4-6
{6}
н/о н/о +14.1 +10.5 79 +13 +13 1011.4 1006.3
11 13.06 ЮЗ 4-6
{6}
н/о н/о +14.2 +9.6 74 +13 +13 1011.5 1006.4
12 13.06 ЮЗ 7
{13}
20 км 6/6 300 м
[Cu med, cong Ac lent]
+14.6 +10.4 76 +13 +15 1011.8 1006.7
13 13.06 ЮЗ 3-5
{6}
н/о н/о +15.4 +10.6 73 +15 +15 1011.9 1006.8
14 13.06 ЮЗ 3-5
{5}
н/о н/о +14.8 +9.8 72 +14 +14 1011.8 1006.7
15 13.06 ЮЗ 6-5
{10}
20 км 5/5 300 м
[Cu hum]
+15.3 +10.3 72 +14 +17 1012.1 1007.0
16 13.06 ЮЗ 3-5
{5}
н/о н/о +15.3 +10.3 72 +15 +15 1012.4 1007.3
17 13.06 ЮЗ 3-4
{5}
н/о н/о +15.0 +10.2 73 +14 +14 1012.1 1007.0
18 13.06 ЮЗ 5
{10}
20 км 5/5 300 м
[Cu hum]
+15.0 +10.4 74 +14 +14 1012.2 1007.1 +12.7 +15.7
19 13.06 ЮЗ 3-4
{5}
н/о н/о +14.5 +10.5 77 +14 +14 1012.3 1007.2
20 13.06 З 3-4
{4}
н/о н/о +14.1 +9.9 76 +13 +13 1012.4 1007.3
21 13.06 З 5-4
{7}
н/о н/о +14.0 +10.2 78 +12 +12 1012.8 1007.7
22 13.06 ЮЗ 3-4
{5}
н/о н/о +14.1 +10.1 77 +13 +13 1013.3 1008.2
23 13.06 ЮЗ 3-5
{5}
н/о н/о +14.1 +9.9 76 +13 +13 1013.4 1008.3
00 14.06 ЮЗ 5-5
{9}
н/о н/о +14.1 +9.9 76 +12 +12 1013.3 1008.2
01 14.06 ЮЗ 3-5
{5}
н/о н/о +13.8 +10.4 80 +13 +13 1013.0 1007.9
02 14.06 ЮЗ 4-5
{5}
н/о н/о +13.9 +9.3 74 +13 +13 1012.8 1007.7
03 14.06 ЮЗ 7-6
{13}
н/о н/о +13.9 +9.5 75 +12 +12 1012.5 1007.4
04 14.06 ЮЗ 4-6
{6}
н/о н/о +14.0 +10.2 78 +13 +13 1012.6 1007.5
05 14.06 ЮЗ 3-6
{6}
н/о н/о +14.1 +10.3 78 +13 +13 1012.7 1007.6
06 14.06 ЮЗ 7
{12}
н/о н/о +14.3 +10.3 77 +12 +12 1013.1 1008.0 +13.8 +15.0
07 14.06 ЮЗ 3-5
{6}
н/о н/о +14.7 +10.1 74 +14 +14 1013.4 1008.3
08 14.06 ЮЗ 3-4
{5}
н/о н/о +15.1 +10.7 75 +15 +15 1013.8 1008.7
09 14.06 ЮЗ 5-4
{9}
20 км 5/5 300 м
[Cu med, cong]
+15.4 +11.0 75 +14 +17 1014.0 1008.9
10 14.06 ЮЗ 3-4
{5}
н/о н/о +15.7 +11.1 74 +15 +15 1014.0 1008.9
11 14.06 ЮЗ 3-4
{4}
н/о н/о +15.7 +10.2 70 +15 +15 1014.1 1009.0
12 14.06 ЮЗ 4-3
{7}
20 км 5/5 300 м
[Cu hum]
+16.3 +10.6 69 +16 +22 1014.3 1009.2
13 14.06 ЮЗ 3-3
{4}
н/о н/о +16.2 +10.7 70 +16 +16 1014.2 1009.1
14 14.06 ЮЗ 2-3
{4}
н/о н/о +16.5 +10.8 69 +17 +17 1013.9 1008.8
15 14.06 ЮЗ 4-3
{7}
20 км 5/5 300 м
[Cu med, cong]
+16.6 +10.9 69 +16 +21 1013.9 1008.8
16 14.06 ЮЗ 2-4
{4}
н/о н/о +16.1 +10.4 69 +16 +16 1013.7 1008.6
17 14.06 ЮЗ 3-4
{5}
н/о н/о +16.0 +10.7 71 +16 +16 1013.9 1008.8
18 14.06 ЮЗ 6
{9}
25 км 6/5 300 м
[Cu hum Ci fib]
+15.3 +10.5 73 +14 +14 1013.9 1008.8 +14.1 +16.7
19 14.06 ЮЗ 3-5
{5}
н/о н/о +14.9 +10.7 76 +14 +14 1013.9 1008.8
20 14.06 ЮЗ 3-5
{5}
н/о н/о +14.7 +10.7 77 +14 +14 1014.1 1009.0
21 14.06 ЮЗ 6-5
{9}
н/о н/о +14.7 +10.3 75 +13 +13 1014.8 1009.7
22 14.06 ЮЗ 3-5
{5}
н/о н/о +14.7 +10.9 78 +14 +14 1014.8 1009.7
23 14.06 ЮЗ 4-6
{6}
н/о н/о +14.6 +10.8 78 +14 +14 1014.9 1009.8
00 15.06 ЮЗ 8-6
{13}
н/о н/о +14.7 +10.9 78 +13 +13 1014.8 1009.7
01 15.06 ЮЗ 5-7
{7}
н/о н/о +14.8 +11.0 78 +13 +13 1014.6 1009.5
02 15.06 ЮЗ 4-6
{7}
н/о н/о +14.7 +11.5 81 +13 +13 1014.4 1009.3
03 15.06 ЮЗ 8
{14}
н/о н/о +14.8 +11.4 80 +13 +13 1014.4 1009.3
04 15.06 ЮЗ 4-7
{7}
н/о н/о +14.7 +10.7 77 +14 +14 1014.4 1009.3
05 15.06 ЮЗ 5-8
{8}
н/о н/о +14.8 +11.0 78 +13 +13 1014.7 1009.6
06 15.06 ЮЗ 9
{15}
20 км 9/6 1000 м
[Cu Sc]
+14.8 +10.8 77 +12 +12 1015.0 1009.9 +14.6 +15.5
07 15.06 ЮЗ 5-7
{7}
н/о н/о +15.0 +11.2 78 +14 +14 1015.4 1010.3
08 15.06 ЮЗ 5-7
{8}
н/о н/о +15.0 +11.0 77 +14 +14 1016.0 1010.9
09 15.06 ЮЗ 9-14
{15}
20 км 10/10 1000 м
[Cu Sc]
+15.2 +11.6 79 +13 +13 1016.3 1011.2
10 15.06 ЮЗ 5-7
{9}
н/о н/о +15.0 +11.9 82 +14 +14 1016.6 1011.5
11 15.06 ЮЗ 6-9
{9}
н/о н/о +15.3 +12.1 81 +14 +14 1016.7 1011.6
12 15.06 ЮЗ 11-17
{17}
н/о н/о +14.8 +12.3 85 +12 +12 1017.0 1011.9
13 15.06 ЮЗ 5-8
{9}
н/о н/о +14.8 +13.0 89 +13 +13 1017.0 1011.9
14 15.06 ЮЗ 6-8
{8}
н/о н/о +15.2 +12.7 85 +14 +14 1017.4 1012.3
15 15.06 ЮЗ 9-15
{17}
8000 м {морось} 10/10 1000 м
[St]
+15.4 +12.7 84 +13 +13 1017.8 1012.7
16 15.06 ЮЗ 5-8
{8}
н/о н/о +15.4 +12.7 84 +14 +14 1017.8 1012.7
17 15.06 ЮЗ 5-8
{8}
н/о н/о +15.7 +12.8 83 +15 +15 1018.0 1012.9
18 15.06 ЮЗ 8-14
{14}
8000 м {морось} 10/10 1000 м
[St]
+15.3 +12.6 84 +13 +13 1018.4 1013.3 +14.2 +15.8
19 15.06 ЮЗ 4-6
{7}
н/о н/о +15.2 +13.0 87 +14 +14 1018.7 1013.6
20 15.06 ЮЗ 4-7
{7}
н/о н/о +15.1 +13.0 87 +14 +14 1018.9 1013.8
21 15.06 ЮЗ 7-6
{12}
н/о н/о +15.1 +13.0 87 +13 +13 1019.4 1014.3
22 15.06 ЮЗ 3-5
{7}
н/о н/о +15.0 +13.4 90 +14 +14 1019.6 1014.5
23 15.06 ЮЗ 3-5
{6}
н/о н/о +15.1 +13.3 89 +14 +14 1019.8 1014.7
00 16.06 ЮЗ 7-6
{11}
н/о н/о +15.1 +13.0 87 +13 +13 1020.0 1014.8
01 16.06 ЮЗ 3-5
{6}
н/о н/о +15.1 +13.0 87 +14 +14 1019.8 1014.7
02 16.06 ЮЗ 3-6
{6}
н/о н/о +15.0 +13.0 88 +14 +14 1019.9 1014.7
03 16.06 ЮЗ 7-6
{12}
н/о н/о +14.6 +13.1 91 +13 +13 1019.7 1014.5
04 16.06 ЮЗ 3-5
{6}
н/о н/о +14.8 +13.2 90 +14 +14 1019.8 1014.6 0.2
05 16.06 ЮЗ 3-5
{6}
н/о н/о +14.3 +12.5 89 +13 +13 1020.0 1014.8 0.4
06 16.06 ЮЗ 8
{13}
15 км 9/9 1000 м
[Cu Sc Ac As]
+14.8 +12.7 87 +13 +13 1020.3 1015.1 +14.3 +15.3 0.6
07 16.06 ЮЗ 4-6
{7}
н/о н/о +15.1 +12.4 84 +14 +14 1020.8 1015.6
08 16.06 ЮЗ 3-6
{6}
н/о н/о +15.5 +12.3 81 +15 +15 1021.2 1016.0
09 16.06 ЮЗ 7-6
{11}
15 км 6/3 600 м
[Cu med, cong Ci fib]
+15.7 +11.9 78 +14 +16 1021.2 1016.1
10 16.06 ЮЗ 3-5
{5}
н/о н/о +16.0 +12.0 77 +16 +16 1021.6 1016.5
11 16.06 ЮЗ 3-5
{5}
н/о н/о +16.2 +12.4 78 +16 +16 1021.6 1016.5
12 16.06 ЮЗ 6-5
{10}
20 км 6/3 600 м
[Cu med, cong Ci fib]
+16.2 +12.0 76 +15 +19 1021.8 1016.7
13 16.06 ЮЗ 3-5
{6}
н/о н/о +16.5 +12.1 75 +16 +16 1021.7 1016.6
14 16.06 ЮЗ 3-4
{5}
н/о н/о +16.6 +12.1 75 +16 +16 1021.6 1016.5
15 16.06 ЮЗ 4-3
{8}
н/о н/о +16.8 +12.1 74 +16 +16 1021.5 1016.4
16 16.06 ЮЗ 2-3
{4}
н/о н/о +17.0 +12.5 75 +17 +17 1021.4 1016.3
17 16.06 Ю 2-3
{3}
н/о н/о +17.0 +12.3 74 +17 +17 1021.1 1016.0
18 16.06 Ю 4
{5}
20 км 3/3 600 м
[Cu med, cong Ci fib]
+16.5 +12.1 75 +16 +17 1021.0 1015.9 +14.7 +17.2
19 16.06 Ю 2-3
{3}
н/о н/о +15.9 +11.9 77 +16 +16 1021.1 1016.0
20 16.06 Ю 2-2
{3}
н/о н/о +15.1 +12.0 82 +15 +15 1021.2 1016.0
21 16.06 Ю 4-2
{5}
н/о н/о +14.8 +11.9 83 +14 +14 1021.5 1016.3
22 16.06 Ю 2-2
{2}
н/о н/о +14.6 +11.9 84 +15 +15 1021.5 1016.3
23 16.06 ЮЗ 1-2
{2}
н/о н/о +14.4 +12.1 86 +15 +15 1021.1 1015.9
00 17.06 Ю 2-1
{3}
н/о н/о +14.3 +12.2 87 +14 +14 1020.9 1015.7
01 17.06 ЮЗ 1-1
{2}
н/о н/о +14.1 +12.3 89 +15 +15 1020.6 1015.4
02 17.06 З 1-1
{1}
н/о н/о +13.6 +11.8 89 +15 +15 1020.4 1015.2
03 17.06 З 1-1
{2}
н/о н/о +13.1 +12.0 93 +13 +13 1020.1 1014.9
04 17.06 С 1-1
{1}
н/о н/о +12.1 +11.2 94 +13 +13 1019.9 1014.7
05 17.06 С 1-1
{2}
н/о н/о +12.7 +11.8 94 +13 +13 1019.7 1014.5
06 17.06 СВ 2
{3}
н/о н/о +14.8 +12.7 87 +14 +14 1019.7 1014.5 +11.0 +16.5
07 17.06 СВ 1-2
{2}
н/о н/о +16.4 +12.9 80 +17 +17 1019.7 1014.6
08 17.06 В 1-2
{2}
н/о н/о +17.2 +12.1 72 +18 +18 1019.6 1014.5
09 17.06 В 2-3
{5}
20 км 5/5 1000 м
[Sc]
+17.3 1019.5
10 17.06 В 1-2
{3}
н/о н/о +17.7 +13.6 77 +19 +19 1019.3 1014.2
11 17.06 В 1-2
{2}
н/о н/о +18.5 +12.7 69 +20 +20 1019.0 1013.9
12 17.06 З 3-2
{7}
20 км 3/0
[Ci sp]
+19.1 1018.6
13 17.06 ЮЗ 1-2
{3}
н/о н/о +19.8 +12.1 61 +22 +22 комфорт 1018.1 1013.0
14 17.06 ЮЗ 1-2
{2}
н/о н/о +20.5 +11.1 55 +23 +23 комфорт 1017.7 1012.7
15 17.06 ЮЗ 2-2
{3}
н/о н/о +21.4 +10.8 51 +23 +23 комфорт 1017.1 1012.1
16 17.06 С 3-3
{7}
н/о н/о +22.0 +10.2 47 +24 +24 комфорт 1016.5 1011.5
17 17.06 С 2-4
{4}
н/о н/о +21.7 +10.5 49 +23 +23 комфорт 1016.1 1011.1
18 17.06 С 5-4
{7}
н/о н/о +20.1 +10.8 55 +22 +22 комфорт 1015.5 1010.5 +14.8 +22.5
19 17.06 С 2-3
{4}
н/о н/о +18.7 +11.3 62 +20 +20 1015.4 1010.3
20 17.06 С 3-4
{4}
н/о н/о +17.2 +11.2 68 +17 +17 1014.9 1009.8
21 17.06 С 5-4
{8}
н/о н/о +17.1 +10.9 67 +16 +16 1015.2 1010.1
22 17.06 С 3-5
{5}
н/о н/о +18.8 +11.6 63 +20 +20 1014.4 1009.3
23 17.06 СВ 3-5
{6}
н/о н/о +19.1 +12.8 67 +20 +20 1014.3 1009.2
00 18.06 СВ 9-7
{13}
н/о н/о +18.2 +14.1 77 +17 +17 1013.0 1007.9
01 18.06 СВ 5-6
{6}
н/о н/о +17.5 +13.6 78 +17 +17 1013.1 1008.0
02 18.06 С 4-5
{6}
н/о н/о +17.0 +13.1 78 +17 +17 1012.7 1007.6
03 18.06 С 5-4
{10}
н/о н/о +16.2 +12.6 79 +15 +15 1012.2 1007.1
04 18.06 СВ 4-5
{6}
н/о н/о +16.5 +12.8 79 +16 +16 1011.6 1006.5
05 18.06 СВ 4-5
{5}
н/о н/о +16.5 +13.2 81 +16 +16 1010.8 1005.7
06 18.06 СВ 8
{13}
20 км 10/10 1000 м
[Sc diur, vesp]
+16.6 +13.5 82 +15 +15 1010.2 1005.1 +16.0 +20.1
07 18.06 З 2-3
{6}
н/о н/о +16.5 +13.8 84 +17 +17 1012.4 1007.3 1
08 18.06 В 4-5
{5}
н/о н/о +16.5 +14.7 89 +16 +16 1010.8 1005.7 7
09 18.06 СВ 9-6
{12}
15 км 10/10 1000 м
[Sc diur, vesp]
+17.3 +15.8 91 +16 +16 1009.3 1004.2 8
10 18.06 СВ 4-6
{6}
н/о н/о +20.0 +16.2 79 +23 +23 комфорт 1009.2 1004.2
11 18.06 СВ 4-5
{6}
н/о н/о +22.1 +16.4 70 +26 +26 душно 1009.4 1004.4
12 18.06 В 4-4
{10}
20 км 5/0
[Ci sp]
+23.0 +15.6 63 +27 +38 душно 1009.4 1004.4
13 18.06 В 2-3
{4}
н/о н/о +22.8 +16.1 66 +27 +27 душно 1009.1 1004.1
14 18.06 В 1-3
{3}
н/о н/о +23.4 +15.7 62 +28 +28 душно 1008.7 1003.8
15 18.06 В 2-3
{5}
н/о н/о +23.0 +16.1 65 +27 +27 душно 1008.6 1003.6
16 18.06 ЮВ 1-2
{2}
н/о н/о +22.6 +16.2 67 +27 +27 душно 1008.4 1003.4
17 18.06 З 1-2
{2}
н/о н/о +21.4 +16.8 75 +25 +25 комфорт 1008.1 1003.1
18 18.06 С 3-2
{5}
н/о н/о +21.2 +15.9 72 +25 +25 комфорт 1008.2 1003.2 +15.9 +23.7
19 18.06 В 1-1
{3}
н/о н/о +18.4 +16.4 88 +20 +20 1008.2 1003.2
20 18.06 В 1-2
{2}
н/о н/о +17.7 +16.6 93 +19 +19 1008.1 1003.1
21 18.06 С 3-2
{8}
н/о н/о +17.6 +16.1 91 +18 +18 1008.3 1003.3
22 18.06 С 1-2
{2}
н/о н/о +17.6 +15.9 90 +19 +19 1008.4 1003.4
23 18.06 ЮЗ 3-5
{6}
н/о н/о +17.4 +16.3 93 +18 +18 1008.3 1003.3
00 19.06 ЮЗ 6-5
{9}
н/о н/о +17.0 +16.0 94 +16 +16 1008.5 1003.4
01 19.06 ЮЗ 1-2
{4}
н/о н/о +16.7 +15.9 95 +18 +18 1008.2 1003.1
02 19.06 Ю 3-3
{4}
н/о н/о +16.4 +15.6 95 +16 +16 1008.0 1002.9
03 19.06 Ю 9-6
{12}
н/о н/о +16.4 +15.4 94 +15 +15 1008.1 1003.0

 

Местоположение метеостанции Дю Талю (Франция): широта 47.30 долгота -3.17 высота над уровнем моря 43 м.

В архиве по умолчанию представлена погода в Дю Талю за последнюю неделю. Архивные данные за месяц целиком и за предыдущие месяцы, начиная с января 2011 года, Вы можете получить, выбрав интересующий диапазон дат из раскрывающегося списка и нажав кнопку "Ввод!".


*Определитесь, кто Вы:
робот инопланетянин человек

Внимание! Время в таблицах - всемирное. Для получения местного времени необходимо прибавить поправку, которая равна 1 ч.

Смотрите также архив погоды в соседних городах и на ближайших метеорологических станциях:

Погода на Груа (Франция) (46 км)
Погода в Лорьене (Франция) (56 км)
Погода на Шемулене (Франция) (66 км)
Погода в Сен-Назере (Франция) (75 км)
Погода на Йе (Франция) (92 км)
Погода в Кемпере (Франция) (106 км)
Погода в Пенмарше (Франция) (106 км)
Погода в Нанте (Франция) (120 км)
Погода в Ренне (Франция) (138 км)
Погода в Сен-Бриё аэропорту (Франция) (139 км)

Пояснения к столбцам:

Ветер - указаны скорость ветра в м/с - средняя за 10 мин, порывы в срок и между сроками (в фигурных скобках) и направление, откуда дует ветер: С - северный, СВ - северо-восточный, В - восточный, ЮВ - юго-восточный, Ю - южный, ЮЗ - юго-западный, З - западный, СЗ - северо-западный.
Видимость - горизонтальная дальность видимости в метрах или километрах. При видимости от 1 до 10 км при отсутствии осадков обычно наблюдается дымка, при ухудшении видимости до 1 км и менее - туман. В сухую погоду видимость может ухудшаться дымом, пылью или мглою.
Явления - указаны атмосферные явления, наблюдавшиеся в срок или в последний час перед сроком; фигурными скобками обозначены явления, наблюдавшиеся между сроками (за 1-3 часа до срока); квадратными скобками обозначены град или гололедные отложения с указанием их диаметра в мм.
Облачность - указаны через наклонную черту общая и нижняя облачность в баллах и высота нижней границы облаков в метрах; квадратными скобками обозначены формы облаков: Ci - перистые, Cs - перисто-слоистые, Cc - перисто-кучевые, Ac - высококучевые, As - высокослоистые, Sc - слоисто-кучевые, Ns - слоисто-дождевые, Cu - кучевые, Cb - кучево-дождевые. Подробнее классификацию облаков см. в Атласе облаков (PDF).
T - Температура воздуха - температура, измеренная на высоте 2 м над землей.
Td - Температура точки росы - температура, при понижении до которой содержащийся в воздухе водяной пар достигнет насыщения.
f - Относительная влажность воздуха - влажноcть воздуха, измеренная на высоте 2 м над землей.
Te - Эффективная температура - температура, которую ощущает одетый по сезону человек в тени. Характеристика душности погоды. При расчете учитывается влияние влажности воздуха и скорости ветра на теплоощущения человека.
Tes - Эффективная температура на солнце - температура, которую ощущает человек, с поправкой на солнечный нагрев. Характеристика знойности погоды. Зависит от высоты солнца над горизонтом, облачности и скорости ветра. Ночью, в пасмурную погоду, а также при ветре 12 м/с и более поправка равна нулю.
P - Атмосферное давление - приведенное к уровню моря атмосферное давление.
Po - Атмосферное давление - измеренное на уровне метеостанции атмосферное давление.
Tmin - Минимальная температура - минимум температуры воздуха на высоте 2 м над землей.
Tmax - Максимальная температура - максимум температуры воздуха на высоте 2 м над землей.
R - Количество осадков - Количество выпавших осадков за период времени, мм. При наведении курсора мыши на число - период времени, за который выпало указанное количество осадков.
R24 - Количество осадков - Количество выпавших осадков за 24 часа, мм.
S - Снежный покров - Высота снежного покрова, см. При наведении курсора мыши на число - состояние снежного покрова и степень покрытия местности в баллах.